1339113633378,2.77299
1339113693378,2.71876
1339113753378,2.76967
1339113813378,2.80722
1339113873378,2.76835
1339113933378,2.72517
1339113993378,2.75747
1339114053378,2.75232
1339114113378,2.74291
1339114173378,2.76355
1339114233378,2.72833
1339114293378,2.76476
1339114353378,2.79532
1339114413378,2.78118
1339114473378,2.75206
1339114533378,2.79516
1339114593378,2.74286
1339114653378,2.75430
1339114713378,2.76218
1339114773378,2.79426
1339114833378,2.75917
1339114893378,2.77185
1339114953378,2.77650
1339115013378,2.75987
1339115073378,2.68260
1339115133378,2.84173
1339115193378,2.75888
1339115253378,2.78324
1339115313378,2.77615
1339115373378,2.71880
1339115433378,2.73601
1339115493378,2.78776
1339115553378,2.74642
1339115613378,2.76558
1339115673378,2.75719
1339115733378,2.78843
1339115793378,2.78262
1339115853378,2.79782
1339115913378,2.94429
1339115973378,2.78421
1339116033378,2.78248
1339116093378,2.75120
1339116153378,2.79878
1339116213378,2.79371
1339116273378,2.76145
1339116333378,2.79210
1339116393378,2.74658
1339116453378,2.77514
1339116513378,2.78798
1339116573378,2.81226
1339116633378,2.77594
1339116693378,2.75824
1339116753378,2.77293
1339116813378,2.78776
1339116873378,2.75502
1339116933378,2.72913
1339116993378,2.77084
1339117053378,2.78131
1339117113378,2.75976
1339117173378,2.72436
1339117233389,2.79005
1339117293389,2.77322
1339117353389,2.75615
1339117413389,2.72925
1339117473389,2.71770
1339117533389,2.75976
1339117593389,2.74919
1339117653389,2.72522
1339117713389,2.73896
1339117773389,2.74213
1339117833389,2.73076
1339117893389,2.72784
1339117953389,2.75559
1339118013389,2.72833
1339118073389,2.72005
1339118133389,2.72830
1339118193389,2.72305
1339118253389,2.79040
1339118313389,2.76632
1339118373389,2.72746
1339118433389,2.72291
1339118493389,2.76358
1339118553389,2.73071
1339118613389,2.73278
1339118673389,2.68807
1339118733389,2.70435
1339118793389,2.72738
1339118853389,2.72653
1339118913389,2.71648
1339118973389,2.70593
1339119033389,2.70500
1339119093389,2.72591
1339119153389,2.71558
1339119213389,2.70820
1339119273389,2.70419
1339119333389,2.70315
1339119393389,2.68724
1339119453389,2.71797
1339119513389,2.70068
1339119573389,2.70155
1339119633389,2.71612
1339119693389,2.69826
1339119753389,2.73821
1339119813389,2.73416
1339119873389,2.69922
1339119933389,2.69235
1339119993389,2.65979
1339120053389,2.68339
1339120113389,2.68003
1339120173389,2.70489
1339120233389,2.68664
1339120293389,2.68805
1339120353389,2.71010
1339120413389,2.70284
1339120473389,2.72634
1339120533389,2.68117
1339120593389,2.68346
1339120653389,2.69036
1339120713389,2.69520
1339120773389,2.63795
1339120833399,2.67382
1339120893399,2.68165
1339120953399,2.67816
1339121013399,2.69649
1339121073399,2.68504
1339121133399,2.72716
1339121193399,2.69278
1339121253399,2.65156
1339121313399,2.67706
1339121373399,2.67492
1339121433399,2.68024
1339121493399,2.72288
1339121553399,2.69747
1339121613399,2.66745
1339121673399,2.70142
1339121733399,2.68912
1339121793399,2.66896
1339121853399,2.70993
1339121913399,2.69049
1339121973399,2.68895
1339122033399,2.71874
1339122093399,2.68417
1339122153399,2.65430
1339122213399,2.69164
1339122273399,2.65642
1339122333399,2.66344
1339122393399,2.69996
1339122453399,2.69188
1339122513399,2.66602
1339122573399,2.69124
1339122633399,2.67744
1339122693399,2.66396
1339122753399,2.66329
1339122813399,2.68589
1339122873399,2.68612
1339122933399,2.65917
1339122993399,2.67312
1339123053399,2.65133
1339123113399,2.66629
1339123173399,2.65370
1339123233399,2.66252
1339123293399,2.65566
1339123353399,2.64978
1339123413399,2.67060
1339123473399,2.66799
1339123533399,2.65747
1339123593399,2.66037
1339123653399,2.65885
1339123713399,2.65163
1339123773399,2.67135
1339123833399,2.64825
1339123893399,2.65566
1339123953399,2.69976
1339124013399,2.65921
1339124073399,2.66548
1339124133399,2.67357
1339124193399,2.66322
1339124253399,2.68692
1339124313399,2.65790
1339124373399,2.69632
1339124433409,2.68991
1339124493409,2.68016
1339124553409,2.70653
1339124613409,2.72826
1339124673409,2.75823
1339124733409,2.75959
1339124793409,2.76148
1339124853409,2.77268
1339124913409,2.78715
1339124973409,2.78462
1339125033409,2.82595
1339125093409,2.83460
1339125153409,2.82205
1339125213409,2.81821
1339125273409,2.82811
1339125333409,2.85012
1339125393409,2.82546
1339125453409,2.83315
1339125513409,2.83658
1339125573409,2.86010
1339125633409,2.85125
1339125693409,2.86932
1339125753409,2.87814
1339125813409,2.90559
1339125873409,2.87788
1339125933409,2.87573
1339125993409,2.87390
1339126053409,2.84092
1339126113409,2.83169
1339126173409,2.83996
1339126233409,2.82225
1339126293409,2.83736
1339126353409,2.80451
1339126413409,2.77655
1339126473409,2.79868
1339126533409,2.79309
1339126593409,2.76272
1339126653409,2.78063
1339126713409,2.74886
1339126773409,2.77203
1339126833409,2.75987
1339126893409,2.75336
1339126953409,2.75834
1339127013409,2.74973
1339127073409,2.75279
1339127133409,2.74567
1339127193409,2.75008
1339127253409,2.75796
1339127313409,2.73850
1339127373409,2.74902
1339127433409,2.73046
1339127493409,2.74379
1339127553409,2.73544
1339127613409,2.72739
1339127673409,2.73475
1339127733409,2.72025
1339127793409,2.73759
1339127853409,2.71648
1339127913409,2.71399
1339127973409,2.71788
1339128033418,2.70522
1339128093418,2.71218
1339128153418,2.70760
1339128213418,2.69753
1339128273418,2.67935
1339128333418,2.69479
1339128393418,2.68750
1339128453418,2.71025
1339128513418,2.67238
1339128573418,2.68194
1339128633418,2.69597
1339128693418,2.66042
1339128753418,2.69160
1339128813418,2.67277
1339128873418,2.68137
1339128933418,2.67090
1339128993418,2.67557
1339129053418,2.65290
1339129113418,2.67383
1339129173418,2.67990
1339129233418,2.67975
1339129293418,2.68318
1339129353418,2.66049
1339129413418,2.66260
1339129473418,2.66584
1339129533418,2.67355
1339129593418,2.65702
1339129653418,2.65734
1339129713418,2.67868
1339129773418,2.65852
1339129833418,2.67510
1339129893418,2.67331
1339129953418,2.82986
1339130013418,2.63800
1339130073418,2.64707
1339130133418,2.65359
1339130193418,2.64902
1339130253418,2.64696
1339130313418,2.62773
1339130373418,2.65409
1339130433418,2.65542
1339130493418,2.64092
1339130553418,2.65257
1339130613418,2.66010
1339130673418,2.63316
1339130733418,2.63671
1339130793418,2.64057
1339130853418,2.65942
1339130913418,2.62960
1339130973418,2.62731
1339131033418,2.64091
1339131093418,2.62020
1339131153418,2.63055
1339131213418,2.63875
1339131273418,2.64143
1339131333418,2.63947
1339131393418,2.60525
1339131453418,2.60434
1339131513418,2.64794
1339131573418,2.64476
1339131633428,2.64878
1339131693428,2.64098
1339131753428,2.62630
1339131813428,2.64200
1339131873428,2.63996
1339131933428,2.65341
1339131993428,2.63468
1339132053428,2.63060
1339132113428,2.63019
1339132173428,2.64262
1339132233428,2.62629
1339132293428,2.62648
1339132353428,2.61479
1339132413428,2.63642
1339132473428,2.62199
1339132533428,2.61536
1339132593428,2.64253
1339132653428,2.61641
1339132713428,2.61770
1339132773428,2.70788
1339132833428,2.62955
1339132893428,2.61326
1339132953428,2.63403
1339133013428,2.62409
1339133073428,2.60690
1339133133428,2.63565
1339133193428,2.62816
1339133253428,2.61841
1339133313428,2.62079
1339133373428,2.62189
1339133433428,2.64566
1339133493428,2.63202
1339133553428,2.62732
1339133613428,2.65412
1339133673428,2.60823
1339133733428,2.64122
1339133793428,2.64638
1339133853428,2.64077
1339133913428,2.62116
1339133973428,2.62867
1339134033428,2.63716
1339134093428,2.66062
1339134153428,2.64084
1339134213428,2.63140
1339134273428,2.63849
1339134333428,2.63802
1339134393428,2.64756
1339134453428,2.62059
1339134513428,2.68579
1339134573428,2.68239
1339134633428,2.63317
1339134693428,2.64268
1339134753428,2.62482
1339134813428,2.63078
1339134873428,2.62579
1339134933428,2.66117
1339134993428,2.64667
1339135053428,2.62286
1339135113428,2.64089
1339135173428,2.62258
1339135233437,2.64549
1339135293437,2.64556
1339135353437,2.66911
1339135413437,2.63950
1339135473437,2.62620
1339135533437,2.64211
1339135593437,2.66199
1339135653437,2.66555
1339135713437,2.65590
1339135773437,2.62840
1339135833437,2.64875
1339135893437,2.62520
1339135953437,2.63454
1339136013437,2.63060
1339136073437,2.65568
1339136133437,2.64741
1339136193437,2.64112
1339136253437,2.63899
1339136313437,2.63411
1339136373437,2.62994
1339136433437,2.64587
1339136493437,2.64250
1339136553437,2.63704
1339136613437,2.64208
1339136673437,2.67020
1339136733437,2.65654
1339136793437,2.63882
1339136853437,2.65917
1339136913437,2.64008
1339136973437,2.66088
1339137033437,2.65215
1339137093437,2.63462
1339137153437,2.64489
1339137213437,2.63471
1339137273437,2.62860
1339137333437,2.63532
1339137393437,2.65046
1339137453437,2.63753
1339137513437,2.65733
1339137573437,2.64203
1339137633437,2.63967
1339137693437,2.64028
1339137753437,2.62562
1339137813437,2.61130
1339137873437,2.64025
1339137933437,2.65545
1339137993437,2.62785
1339138053437,2.63477
1339138113437,2.63699
1339138173437,2.65240
1339138233437,2.61644
1339138293437,2.65173
1339138353437,2.63569
1339138413437,2.63870
1339138473437,2.64940
1339138533437,2.63306
1339138593437,2.64222
1339138653437,2.65314
1339138713437,2.64166
1339138773437,2.64686
1339138833447,2.63387
1339138893447,2.63918
1339138953447,2.61774
1339139013447,2.63654
1339139073447,2.62393
1339139133447,2.63121
1339139193447,2.63362
1339139253447,2.62971
1339139313447,2.63811
1339139373447,2.64898
1339139433447,2.63138
1339139493447,2.62293
1339139553447,2.55146
1339139613447,2.63845
1339139673447,2.63313
1339139733447,2.69334
1339139793447,2.69385
1339139853447,2.72264
1339139913447,2.69822
1339139973447,2.67207
1339140033447,2.62025
1339140093447,2.66245
1339140153447,2.63469
1339140213447,2.65909
1339140273447,2.64040
1339140333447,2.63396
1339140393447,2.64324
1339140453447,2.62487
1339140513447,2.61830
1339140573447,2.63291
1339140633447,2.61709
1339140693447,2.66187
1339140753447,2.62058
1339140813447,2.62498
1339140873447,2.63045
1339140933447,2.61876
1339140993447,2.62951
1339141053447,2.64039
1339141113447,2.62304
1339141173447,2.62312
1339141233447,2.63957
1339141293447,2.62980
1339141353447,2.61973
1339141413447,2.63279
1339141473447,2.62957
1339141533447,2.60304
1339141593447,2.61311
1339141653447,2.62947
1339141713447,2.61111
1339141773447,2.62421
1339141833447,2.65179
1339141893447,2.61727
1339141953447,2.58662
1339142013447,2.61654
1339142073447,2.61308
1339142133447,2.60972
1339142193447,2.63228
1339142253447,2.61459
1339142313447,2.61961
1339142373447,2.61770
1339142433456,2.63040
1339142493456,2.61168
1339142553456,2.60382
1339142613456,2.62495
1339142673456,2.62244
1339142733456,2.63193
1339142793456,2.60789
1339142853456,2.61103
1339142913456,2.62268
1339142973456,2.62776
1339143033456,2.62182
1339143093456,2.61910
1339143153456,2.60308
1339143213456,2.62027
1339143273456,2.60417
1339143333456,2.62918
1339143393456,2.62138
1339143453456,2.62049
1339143513456,2.63110
1339143573456,2.61770
1339143633456,2.61511
1339143693456,2.59679
1339143753456,2.61563
1339143813456,2.61818
1339143873456,2.62453
1339143933456,2.63217
1339143993456,2.62670
1339144053456,2.60844
1339144113456,2.61305
1339144173456,2.61188
1339144233456,2.62044
1339144293456,2.60287
1339144353456,2.62038
1339144413456,2.60424
1339144473456,2.59989
1339144533456,2.60072
1339144593456,2.61851
1339144653456,2.61978
1339144713456,2.61012
1339144773456,2.61006
1339144833456,2.60765
1339144893456,2.62493
1339144953456,2.62507
1339145013456,2.64268
1339145073456,2.61762
1339145133456,2.61859
1339145193456,2.62227
1339145253456,2.60379
1339145313456,2.63501
1339145373456,2.61336
1339145433456,2.59797
1339145493456,2.59169
1339145553456,2.60897
1339145613456,2.59199
1339145673456,2.62043
1339145733456,2.61771
1339145793456,2.61152
1339145853456,2.62259
1339145913456,2.61172
1339145973456,2.61523
1339146033465,2.61037
1339146093465,2.60107
1339146153465,2.61251
1339146213465,2.59680
1339146273465,2.61803
1339146333465,2.62348
1339146393465,2.63900
1339146453465,2.61970
1339146513465,2.61061
1339146573465,2.61950
1339146633465,2.62464
1339146693465,2.61872
1339146753465,2.60535
1339146813465,2.61373
1339146873465,2.63728
1339146933465,2.62262
1339146993465,2.62079
1339147053465,2.62556
1339147113465,2.61125
1339147173465,2.62806
1339147233465,2.62246
1339147293465,2.60505
1339147353465,2.62472
1339147413465,2.62680
1339147473465,2.60358
1339147533465,2.60788
1339147593465,2.61448
1339147653465,2.62919
1339147713465,2.63916
1339147773465,2.61790
1339147833465,2.60203
1339147893465,2.61104
1339147953465,2.62657
1339148013465,2.62038
1339148073465,2.59757
1339148133465,2.60272
1339148193465,2.63125
1339148253465,2.60091
1339148313465,2.61895
1339148373465,2.60809
1339148433465,2.60112
1339148493465,2.58606
1339148553465,2.60926
1339148613465,2.62817
1339148673465,2.59785
1339148733465,2.60524
1339148793465,2.61120
1339148853465,2.61322
1339148913465,2.61339
1339148973465,2.62577
1339149033465,2.62021
1339149093465,2.58733
1339149153465,2.60950
1339149213465,2.61332
1339149273465,2.59853
1339149333465,2.62515
1339149393465,2.60018
1339149453465,2.61728
1339149513465,2.62271
1339149573465,2.59180
1339149633474,2.61668
1339149693474,2.61315
1339149753474,2.61088
1339149813474,2.61803
1339149873474,2.60794
1339149933474,2.60663
1339149993474,2.61303
1339150053474,2.62910
1339150113474,2.63295
1339150173474,2.62742
1339150233474,2.62337
1339150293474,2.62321
1339150353474,2.62515
1339150413474,2.60813
1339150473474,2.63126
1339150533474,2.60330
1339150593474,2.59776
1339150653474,2.61880
1339150713474,2.62678
1339150773474,2.62914
1339150833474,2.62832
1339150893474,2.60651
1339150953474,2.60324
1339151013474,2.60946
1339151073474,2.62170
1339151133474,2.63052
1339151193474,2.62235
1339151253474,2.61875
1339151313474,2.62900
1339151373474,2.61882
1339151433474,2.64351
1339151493474,2.73189
1339151553474,2.60888
1339151613474,2.62506
1339151673474,2.61439
1339151733474,2.60236
1339151793474,2.61600
1339151853474,2.63989
1339151913474,2.62192
1339151973474,2.63725
1339152033474,2.61848
1339152093474,2.63070
1339152153474,2.59145
1339152213474,2.63292
1339152273474,2.64809
1339152333474,2.61495
1339152393474,2.61593
1339152453474,2.62823
1339152513474,2.61303
1339152573474,2.62634
1339152633474,2.64324
1339152693474,2.62759
1339152753474,2.61916
1339152813474,2.60910
1339152873474,2.62892
1339152933474,2.62494
1339152993474,2.60525
1339153053474,2.62863
1339153113474,2.62635
1339153173474,2.64556
1339153233483,2.64264
1339153293483,2.61156
1339153353483,2.66569
1339153413483,2.61941
1339153473483,2.60215
1339153533483,2.62721
1339153593483,2.63584
1339153653483,2.62390
1339153713483,2.62951
1339153773483,2.63173
1339153833483,2.61752
1339153893483,2.61657
1339153953483,2.63643
1339154013483,2.62590
1339154073483,2.62433
1339154133483,2.63247
1339154193483,2.63413
1339154253483,2.62668
1339154313483,2.63925
1339154373483,2.63564
1339154433483,2.63677
1339154493483,2.63162
1339154553483,2.64133
1339154613483,2.63360
1339154673483,2.64270
1339154733483,2.63210
1339154793483,2.63496
1339154853483,2.62965
1339154913483,2.63683
1339154973483,2.62822
1339155033483,2.66677
1339155093483,2.65146
1339155153483,2.66236
1339155213483,2.64306
1339155273483,2.63804
1339155333483,2.61608
1339155393483,2.64672
1339155453483,2.63657
1339155513483,2.63214
1339155573483,2.65691
1339155633483,2.63247
1339155693483,2.65169
1339155753483,2.64586
1339155813483,2.60746
1339155873483,2.66734
1339155933483,2.63536
1339155993483,2.63066
1339156053483,2.60400
1339156113483,2.63163
1339156173483,2.63790
1339156233483,2.63666
1339156293483,2.63957
1339156353483,2.66910
1339156413483,2.62972
1339156473483,2.63370
1339156533483,2.64439
1339156593483,2.67723
1339156653483,2.63154
1339156713483,2.63030
1339156773483,2.64670
1339156833493,2.62484
1339156893493,2.66021
1339156953493,2.62316
1339157013493,2.64839
1339157073493,2.65785
1339157133493,2.65003
1339157193493,2.66191
1339157253493,2.64783
1339157313493,2.65631
1339157373493,2.63173
1339157433493,2.67010
1339157493493,2.67031
1339157553493,2.63361
1339157613493,2.64330
1339157673493,2.64985
1339157733493,2.65321
1339157793493,2.66553
1339157853493,2.64069
1339157913493,2.67070
1339157973493,2.67082
1339158033493,2.65793
1339158093493,2.65649
1339158153493,2.66416
1339158213493,2.67377
1339158273493,2.66068
1339158333493,2.65625
1339158393493,2.66431
1339158453493,2.66880
1339158513493,2.67583
1339158573493,2.67620
1339158633493,2.64743
1339158693493,2.68267
1339158753493,2.66808
1339158813493,2.65761
1339158873493,2.64058
1339158933493,2.65927
1339158993493,2.67876
1339159053493,2.64628
1339159113493,2.66439
1339159173493,2.67167
1339159233493,2.66564
1339159293493,2.67328
1339159353493,2.66042
1339159413493,2.66774
1339159473493,2.67332
1339159533493,2.65247
1339159593493,2.66365
1339159653493,2.65003
1339159713493,2.68340
1339159773493,2.68367
1339159833493,2.68503
1339159893493,2.66229
1339159953493,2.66539
1339160013493,2.65846
1339160073493,2.68166
1339160133493,2.66665
1339160193493,2.65892
1339160253493,2.72626
1339160313493,2.70149
1339160373493,2.68414
1339160433502,2.69689
1339160493502,2.68527
1339160553502,2.67984
1339160613502,2.67434
1339160673502,2.69967
1339160733502,2.69512
1339160793502,2.73539
1339160853502,2.67521
1339160913502,2.66591
1339160973502,2.69524
1339161033502,2.71011
1339161093502,2.72949
1339161153502,2.67340
1339161213502,2.70602
1339161273502,2.68524
1339161333502,2.70565
1339161393502,2.70863
1339161453502,2.75197
1339161513502,2.70230
1339161573502,2.70571
1339161633502,2.70951
1339161693502,2.71755
1339161753502,2.69083
1339161813502,2.73645
1339161873502,2.73614
1339161933502,2.71209
1339161993502,2.71793
1339162053502,2.70774
1339162113502,2.72729
1339162173502,2.72048
1339162233502,2.68989
1339162293502,2.68812
1339162353502,2.63563
1339162413502,2.71647
1339162473502,2.67262
1339162533502,2.74952
1339162593502,2.72805
1339162653502,2.70913
1339162713502,2.72877
1339162773502,2.91175
1339162833502,2.74465
1339162893502,2.74330
1339162953502,2.73921
1339163013502,2.73370
1339163073502,2.74322
1339163133502,2.73200
1339163193502,2.70838
1339163253502,2.71014
1339163313502,2.74560
1339163373502,2.73196
1339163433502,2.74889
1339163493502,2.75096
1339163553502,2.73482
1339163613502,2.74382
1339163673502,2.72727
1339163733502,2.70763
1339163793502,2.77518
1339163853502,2.71623
1339163913502,2.71680
1339163973502,2.74472
1339164033511,2.74531
1339164093511,2.71053
1339164153511,2.72236
1339164213511,2.74104
1339164273511,2.73400
1339164333511,2.73282
1339164393511,2.72514
1339164453511,2.76696
1339164513511,2.78384
1339164573511,2.73970
1339164633511,2.72294
1339164693511,2.74549
1339164753511,2.72576
1339164813511,2.73165
1339164873511,2.74904
1339164933511,2.74788
1339164993511,2.73778
1339165053511,2.76094
1339165113511,2.79101
1339165173511,2.75714
1339165233511,2.75275
1339165293511,2.78970
1339165353511,2.74536
1339165413511,2.75124
1339165473511,2.73871
1339165533511,2.74149
1339165593511,2.74349
1339165653511,2.75434
1339165713511,2.71697
1339165773511,2.82226
1339165833511,2.71306
1339165893511,2.69172
1339165953511,2.73932
1339166013511,2.74267
1339166073511,2.71117
1339166133511,2.78886
1339166193511,2.75509
1339166253511,2.71661
1339166313511,2.73473
1339166373511,2.74834
1339166433511,2.70832
1339166493511,2.72610
1339166553511,2.74780
1339166613511,2.72753
1339166673511,2.73441
1339166733511,2.70703
1339166793511,2.72698
1339166853511,2.73597
1339166913511,2.74491
1339166973511,2.70260
1339167033511,2.76764
1339167093511,2.74591
1339167153511,2.76624
1339167213511,2.76119
1339167273511,2.75081
1339167333511,2.74476
1339167393511,2.73898
1339167453511,2.78387
1339167513511,2.70084
1339167573511,2.74364
1339167633520,2.77283
1339167693520,2.69827
1339167753520,2.74669
1339167813520,2.72334
1339167873520,2.72671
1339167933520,2.73283
1339167993520,2.75491
1339168053520,2.77702
1339168113520,2.70961
1339168173520,2.72250
1339168233520,2.76420
1339168293520,2.69035
1339168353520,2.74735
1339168413520,2.71589
1339168473520,2.74867
1339168533520,2.72594
1339168593520,2.73779
1339168653520,2.71809
1339168713520,2.95495
1339168773520,2.73977
1339168833520,2.73512
1339168893520,2.73149
1339168953520,2.75467
1339169013520,2.76552
1339169073520,2.75427
1339169133520,2.76086
1339169193520,2.78411
1339169253520,2.78395
1339169313520,2.67956
1339169373520,2.75417
1339169433520,2.75475
1339169493520,2.73869
1339169553520,2.75301
1339169613520,2.74516
1339169673520,2.75457
1339169733520,2.69865
1339169793520,2.74129
1339169853520,2.71543
1339169913520,2.71518
1339169973520,2.67842
1339170033520,2.71088
1339170093520,2.68489
1339170153520,2.73587
1339170213520,2.70848
1339170273520,2.72341
1339170333520,2.69966
1339170393520,2.76180
1339170453520,2.71190
1339170513520,2.70586
1339170573520,2.69258
1339170633520,2.72075
1339170693520,2.72081
1339170753520,2.70097
1339170813520,2.73701
1339170873520,2.73750
1339170933520,2.69996
1339170993520,2.70103
1339171053520,2.74114
1339171113520,2.72658
1339171173520,2.73643
1339171233530,2.77261
1339171293530,2.73677
1339171353530,2.72211
1339171413530,2.73357
1339171473530,2.71301
1339171533530,2.71829
1339171593530,2.69927
1339171653530,2.71460
1339171713530,2.71398
1339171773530,2.72267
1339171833530,2.68990
1339171893530,2.74035
1339171953530,2.68542
1339172013530,2.73459
1339172073530,2.73096
1339172133530,2.73855
1339172193530,2.72097
1339172253530,2.71566
1339172313530,2.71089
1339172373530,2.70084
1339172433530,2.72122
1339172493530,2.75757
1339172553530,2.74357
1339172613530,2.72697
1339172673530,2.73877
1339172733530,2.71345
1339172793530,2.69320
1339172853530,2.72199
1339172913530,2.69807
1339172973530,2.71319
1339173033530,2.72193
1339173093530,2.72959
1339173153530,2.69398
1339173213530,2.70002
1339173273530,2.67705
1339173333530,2.70430
1339173393530,2.69287
1339173453530,2.70742
1339173513530,2.69829
1339173573530,2.68458
1339173633530,2.73131
1339173693530,2.69028
1339173753530,2.71732
1339173813530,2.69400
1339173873530,2.68859
1339173933530,2.70957
1339173993530,2.67645
1339174053530,2.67160
1339174113530,2.70415
1339174173530,2.70479
1339174233530,2.69855
1339174293530,2.70061
1339174353530,2.63452
1339174413530,2.66531
1339174473530,2.70921
1339174533530,2.69257
1339174593530,2.71639
1339174653530,2.70971
1339174713530,2.71618
1339174773530,2.71782
1339174833539,2.70063
1339174893539,2.69558
1339174953539,2.65933
1339175013539,2.68426
1339175073539,2.68940
1339175133539,2.69829
1339175193539,2.67515
1339175253539,2.66794
1339175313539,2.66753
1339175373539,2.68841
1339175433539,2.69116
1339175493539,2.67275
1339175553539,2.67261
1339175613539,2.69407
1339175673539,2.70069
1339175733539,2.68054
1339175793539,2.69065
1339175853539,2.70619
1339175913539,2.69121
1339175973539,2.72736
1339176033539,2.69863
1339176093539,2.66460
1339176153539,2.69713
1339176213539,2.69782
1339176273539,2.71715
1339176333539,2.66520
1339176393539,2.67793
1339176453539,2.65351
1339176513539,2.68177
1339176573539,2.70105
1339176633539,2.69790
1339176693539,2.69369
1339176753539,2.68607
1339176813539,2.68356
1339176873539,2.70641
1339176933539,2.71323
1339176993539,2.70324
1339177053539,2.71923
1339177113539,2.69453
1339177173539,2.69329
1339177233539,2.70473
1339177293539,2.70710
1339177353539,2.70090
1339177413539,2.70093
1339177473539,2.69930
1339177533539,2.70512
1339177593539,2.68447
1339177653539,2.68296
1339177713539,2.72226
1339177773539,2.69249
1339177833539,2.70045
1339177893539,2.68126
1339177953539,2.71210
1339178013539,2.70441
1339178073539,2.68554
1339178133539,2.69759
1339178193539,2.70171
1339178253539,2.70467
1339178313539,2.69114
1339178373539,2.70309
1339178433549,2.67084
1339178493549,2.68909
1339178553549,2.69587
1339178613549,2.70128
1339178673549,2.71801
1339178733549,2.69305
1339178793549,2.69816
1339178853549,2.70752
1339178913549,2.68453
1339178973549,2.67862